View Sortable Currents For Network
ASOSAWOSCoCoRaHSCOOPDCPISUSM
SchoolNetOtherSCANMy FavoritesBy StateRWIS
RWIS SurfaceRWIS TrafficRWIS SoilBy NWS WFO

Sorted by: Valid. The number of observations missing for this month is shown in parenthesis.

Add: SiteID: Station Name: County: Valid: Hydro
24hour Rain Month Rain Snowfall Ratio Snow Depth
IA-PK-68 Clive 1.2 E Polk15 Jul 2018 10:00 AM5.7
IA-PK-75 Clive 0.1 WSW Polk15 Jul 2018 10:00 AM4.68
IA-BC-9 Winthrop 5.6 NNE Buchanan15 Jul 2018 09:00 AM3.07
IA-MC-6 Muscatine 2.6 NNE Muscatine15 Jul 2018 09:00 AM0.67
IA-DM-8 Burlington 0.8 SSE Des Moines15 Jul 2018 08:37 AM2.11
IA-ID-4 Arthur 3.7 SSW Ida15 Jul 2018 08:01 AM2.97
IA-ST-30 Eldridge 0.7 SSW Scott15 Jul 2018 08:00 AM0.54
IA-WS-7 Wellman 4.0 E Washington15 Jul 2018 08:00 AM1.42
IA-FM-1 Sidney 5.1 NNE Fremont15 Jul 2018 08:00 AM2.31
IA-WH-1 Decorah 7.9 ENE Winneshiek15 Jul 2018 08:00 AM3.92
IA-PT-13 Council Bluffs 2.1 SSE Pottawattamie15 Jul 2018 08:00 AM2.02
IA-HY-5 Salem 3.1 ESE Henry15 Jul 2018 08:00 AM0.38
IA-SX-6 Orange City 2.5 S Sioux15 Jul 2018 08:00 AM3.5
IA-ST-1 Le Claire 1.8 NNE Scott15 Jul 2018 08:00 AM1.42
IA-DK-6 Lake Park 0.2 N Dickinson15 Jul 2018 08:00 AM4.67
IA-JH-20 Coralville 1.4 S Johnson15 Jul 2018 08:00 AM0.95
IA-UN-3 Murray 5.7 SW Union15 Jul 2018 08:00 AM1.23
IA-PC-8 Fonda 4.5 NNW Pocahontas15 Jul 2018 08:00 AM4.18
IA-BH-17 Gilbertville 1.0 NW Black Hawk15 Jul 2018 08:00 AM2.35
IA-BU-3 Clarksville 0.2 NW Butler15 Jul 2018 08:00 AM2.2
IA-AL-4 Waukon 0.5 ESE Allamakee15 Jul 2018 08:00 AM3.05
IA-CT-7 Marquette 0.2 NNE Clayton15 Jul 2018 08:00 AM3.09
IA-JH-23 Tiffin 1.9 SW Johnson15 Jul 2018 08:00 AM0.95
IA-SR-29 Ames 2.5 W Story15 Jul 2018 08:00 AM3.57
IA-PG-3 College Springs 0.3 NNW Page15 Jul 2018 08:00 AM2.58
IA-CG-4 Mason City 1.3 W Cerro Gordo15 Jul 2018 07:45 AM3.97
IA-LN-27 Marion 1.7 NNW Linn15 Jul 2018 07:38 AM1.48
IA-DB-19 Dubuque 1.4 WSW Dubuque15 Jul 2018 07:30 AM1.83
IA-WP-10 Ottumwa 3.1 S Wapello15 Jul 2018 07:18 AM1.16
IA-DK-3 Lake Park 3.2 SSE Dickinson15 Jul 2018 07:00 AM3.83
IA-CS-2 Anita 2.8 ESE Cass15 Jul 2018 07:00 AM3.2
IA-CN-5 Camanche 1.2 W Clinton15 Jul 2018 07:00 AM0.95
IA-CN-8 Delmar 2.3 NW Clinton15 Jul 2018 07:00 AM0.45
IA-PA-5 West Bend 5.4 W Palo Alto15 Jul 2018 07:00 AM4.05
IA-CL-3 Murray 0.5 N Clarke15 Jul 2018 07:00 AM1.01
IA-SX-7 Sioux Center 2.6 N Sioux15 Jul 2018 07:00 AM0.88
IA-MC-13 Muscatine 2.1 N Muscatine15 Jul 2018 07:00 AM0.73
IA-ST-3 Park View 0.2 WSW Scott15 Jul 2018 07:00 AM0.15
IA-IA-6 Amana 4.7 W Iowa15 Jul 2018 07:00 AM1.15
IA-JH-21 Iowa City 8.0 NE Johnson15 Jul 2018 07:00 AM0.92
IA-CG-7 Swaledale 0.0 WNW Cerro Gordo15 Jul 2018 07:00 AM3.24
IA-DB-20 Asbury 0.4 SW Dubuque15 Jul 2018 07:00 AM2.52
IA-KS-5 Burt 0.5 NW Kossuth15 Jul 2018 07:00 AM1.82
IA-CL-2 Osceola 2.5 WSW Clarke15 Jul 2018 07:00 AM1.87
IA-DV-2 Moulton 3.6 ENE Davis15 Jul 2018 07:00 AM1.8
IA-SR-34 Nevada 4.6 S Story15 Jul 2018 07:00 AM8.31
IA-BH-3 Cedar Falls 0.4 WNW Black Hawk15 Jul 2018 07:00 AM5.27
IA-BH-6 Waterloo 1.8 SSE Black Hawk15 Jul 2018 07:00 AM3.61
IA-HD-5 Eldora 1.2 ENE Hardin15 Jul 2018 07:00 AM3.62
IA-DM-7 Burlington 6.5 SSW Des Moines15 Jul 2018 07:00 AM2.1
IA-ST-28 Bettendorf 1.6 WSW Scott15 Jul 2018 07:00 AM1.63
IA-DV-3 Bloomfield 8.6 SSW Davis15 Jul 2018 07:00 AM0.63
IA-CR-7 Manning 0.2 ESE Carroll15 Jul 2018 07:00 AM2.55
IA-SR-17 Ames 0.9 ENE Story15 Jul 2018 07:00 AM5.02
IA-WB-5 Badger 3.1 NW Webster15 Jul 2018 07:00 AM3.65
IA-CW-3 New Hampton 0.3 NNW Chickasaw15 Jul 2018 07:00 AM3.84
IA-IA-18 Marengo 3.6 N Iowa15 Jul 2018 07:00 AM2.15
IA-JH-9 Kalona 7.3 NNW Johnson15 Jul 2018 07:00 AM0.9
IA-PK-21 Johnston 3.7 NNW Polk15 Jul 2018 07:00 AM5.01
IA-SR-19 Gilbert 0.2 W Story15 Jul 2018 07:00 AM4.23
IA-AL-5 Lansing 4.1 NW Allamakee15 Jul 2018 07:00 AM2.53
IA-AP-7 Centerville 0.3 NE Appanoose15 Jul 2018 07:00 AM0.53
IA-HY-1 New London 1.5 SW Henry15 Jul 2018 07:00 AM0.69
IA-ST-37 Davenport 0.9 WNW Scott15 Jul 2018 07:00 AM1.15
IA-PK-73 Des Moines 4.1 N Polk15 Jul 2018 07:00 AM5.83
IA-PK-3 Des Moines 4.5 ENE Polk15 Jul 2018 07:00 AM5.72
IA-CN-17 Charlotte 1.9 WNW Clinton15 Jul 2018 07:00 AM0.63
IA-WH-5 Decorah 4.9SE Winneshiek15 Jul 2018 07:00 AM3.2
IA-CL-4 Murray 1.7 W Clarke15 Jul 2018 07:00 AM1.31
IA-PK-37 Windsor Heights 0.8 SE Polk15 Jul 2018 07:00 AM5.31
IA-CN-12 Lost Nation 0.3 S Clinton15 Jul 2018 07:00 AM0.57
IA-UN-1 Creston 0.7 NE Union15 Jul 2018 07:00 AM1.09
IA-HR-16 Logan 0.8 WNW Harrison15 Jul 2018 07:00 AM2.04
IA-JH-26 Iowa City 1.1 SE Johnson15 Jul 2018 07:00 AM0.85
IA-PK-95 Des Moines 3.7 NW Polk15 Jul 2018 07:00 AM5.97
IA-CH-2 Manson 1.4 NE Calhoun15 Jul 2018 07:00 AM3.74
IA-BT-12 Fairfax 4.0 NW Benton15 Jul 2018 07:00 AM1.69
IA-BN-13 Madrid 5.8 NNW Boone15 Jul 2018 07:00 AM3.34
IA-DW-7 Hopkinton 0.2 NE Delaware15 Jul 2018 07:00 AM2.6
IA-CW-2 New Hampton 0.4 SW Chickasaw15 Jul 2018 07:00 AM3.85
IA-WR-15 Norwalk 1.7 SSE Warren15 Jul 2018 07:00 AM2.66
IA-PL-8 Kingsley 0.5 S Plymouth15 Jul 2018 07:00 AM3.23
IA-PK-89 Ankeny 3.7 NNE Polk15 Jul 2018 07:00 AM7.46
IA-BH-7 Cedar Falls 1.4 SSE Black Hawk15 Jul 2018 07:00 AM4.81
IA-BH-10 Cedar Falls 0.6 N Black Hawk15 Jul 2018 07:00 AM4.86
IA-PT-2 Council Bluffs 3.4 NNE Pottawattamie15 Jul 2018 07:00 AM1.5
IA-CN-2 Calamus 2.0 NE Clinton15 Jul 2018 07:00 AM0.58
IA-MT-1 Osage 4.7 E Mitchell15 Jul 2018 07:00 AM3.59
IA-CN-13 Goose Lake 6.4 SSW Clinton15 Jul 2018 07:00 AM0.91
IA-BC-8 Independence 0.9 WNW Buchanan15 Jul 2018 07:00 AM2.21
IA-LN-36 Shellsburg 2.9 S Benton15 Jul 2018 07:00 AM4.41
IA-KS-4 Algona 0.7 SE Kossuth15 Jul 2018 06:52 AM1.77
IA-LN-7 Central City 6.7 W Linn15 Jul 2018 06:30 AM3.18
IA-SH-6 Kirkman 1.0 SE Shelby15 Jul 2018 06:30 AM1.85
IA-TY-2 New Market 4.7 N Taylor15 Jul 2018 06:30 AM0.66
IA-HB-2 Humboldt 2.0 NE Humboldt15 Jul 2018 06:30 AM4.87
IA-HN-4 Garner 0.4 WNW Hancock15 Jul 2018 06:30 AM1.85
IA-WS-8 Washington 5.8 SW Washington15 Jul 2018 06:00 AM0.44
IA-DM-10 Burlington 2.1 S Des Moines15 Jul 2018 06:00 AM1.76
IA-WB-3 Fort Dodge 1.6 ENE Webster15 Jul 2018 06:00 AM3.15
IA-PA-6 West Bend 2.1 WNW Palo Alto15 Jul 2018 06:00 AM2.8
IA-DB-21 Rickardsville 0.2 W Dubuque15 Jul 2018 06:00 AM1.75
IA-WP-6 Ottumwa 2.2 NE Wapello15 Jul 2018 06:00 AM0.38
IA-LN-30 Center Point 0.6 NNW Linn15 Jul 2018 06:00 AM2.55
IA-LN-31 Cedar Rapids 2.7 NE Linn15 Jul 2018 06:00 AM1.72
IA-LN-3 Ely 0.5 SE Linn15 Jul 2018 06:00 AM1.44
IA-BN-3 Ogden 1.6 SE Boone15 Jul 2018 05:50 AM5.21
IA-BN-12 Boone 4.5 WSW Boone15 Jul 2018 05:28 AM2.87
IA-IA-13 Parnell 0.1 SSW Iowa15 Jul 2018 05:21 AM1.26
IA-DL-22 Waukee 1.2 ENE Dallas15 Jul 2018 05:00 AM4
IA-CD-5 Durant 0.2 S Cedar14 Jul 2018 12:00 PM0.3
IA-JH-8 North Liberty 1.0 ENE Johnson14 Jul 2018 09:00 AM0.66
IA-SH-7 Atlantic 9.9 NNW Shelby14 Jul 2018 09:00 AM3.72
IA-DW-9 Manchester 1.1 N Delaware14 Jul 2018 08:49 AM1.39
IA-JH-14 Swisher 0.4 NNE Johnson14 Jul 2018 08:28 AM0.58
IA-WG-5 Eagle Grove 1.1 E Wright14 Jul 2018 08:10 AM1.73
IA-LE-11 West Point 7.5 NW Lee14 Jul 2018 08:00 AM0.43
IA-BC-7 Independence 1.2 N Buchanan14 Jul 2018 08:00 AM0.64
IA-WR-5 Hartford 1.0 ENE Warren14 Jul 2018 08:00 AM2.96
IA-JH-22 Coralville 1.3 SE Johnson14 Jul 2018 07:15 AM0.74
IA-DL-28 Waukee 3.0 SSW Dallas14 Jul 2018 07:00 AM0.27
IA-DL-18 Waukee 0.6 W Dallas14 Jul 2018 07:00 AM4.29
IA-MD-3 Earlham 2.0 W Madison14 Jul 2018 07:00 AM0.75
IA-CY-2 Everly 0.2 SE Clay14 Jul 2018 07:00 AM4.97
IA-LN-4 Cedar Rapids 3.4 NW Linn14 Jul 2018 07:00 AM1.58
IA-AL-3 Monona 9.7 N Allamakee14 Jul 2018 07:00 AM2.94
IA-EM-3 Ringsted 7.7 W Emmet14 Jul 2018 07:00 AM3.01
IA-HR-2 Woodbine 2.1 N Harrison14 Jul 2018 07:00 AM4.33
IA-DL-24 Waukee 0.3 WNW Dallas14 Jul 2018 07:00 AM4.08
IA-PW-4 Grinnell 0.6 NW Poweshiek14 Jul 2018 07:00 AM1.41
IA-CF-2 Schleswig 0.4 NE Crawford14 Jul 2018 07:00 AM3.72
IA-PT-7 Council Bluffs 3.6 E Pottawattamie14 Jul 2018 07:00 AM1.37
IA-SR-2 Ames 1.5 NNE Story14 Jul 2018 07:00 AM5.06
IA-SC-4 Odebolt 4.8 NNW Sac14 Jul 2018 07:00 AM2.67
IA-CK-1 Cleghorn 4.4 N Cherokee14 Jul 2018 07:00 AM3.81
IA-PK-93 Johnston 2.6 W Polk14 Jul 2018 07:00 AM6.16
IA-MC-10 Muscatine 1.4 N Muscatine14 Jul 2018 07:00 AM0.42
IA-SR-8 Gilbert 0.3 SE Story14 Jul 2018 07:00 AM3.82
IA-JH-17 Iowa City 4.5 N Johnson14 Jul 2018 07:00 AM0.8
IA-WR-7 Indianola 0.8 SSW Warren14 Jul 2018 07:00 AM2.16
IA-HR-13 Missouri Valley 6.3 ENE Harrison14 Jul 2018 07:00 AM2.5
IA-CG-11 Mason City 1.4 SSW Cerro Gordo14 Jul 2018 07:00 AM4.11
IA-DL-20 Minburn 1.7 WSW Dallas14 Jul 2018 07:00 AM2.38
IA-BU-2 Ackley 9.2 NNE Butler14 Jul 2018 07:00 AM3
IA-PK-88 Des Moines 5.4 WNW Polk14 Jul 2018 07:00 AM6.94
IA-BC-10 Winthrop 0.4 NNE Buchanan14 Jul 2018 07:00 AM3.01
IA-DL-17 Dallas Center 3.9 NNE Dallas14 Jul 2018 07:00 AM5.26
IA-HR-4 Persia 2.0 S Harrison14 Jul 2018 07:00 AM3.34
IA-ST-42 Riverdale 0.5 N Scott14 Jul 2018 07:00 AM2.17
IA-AP-4 Centerville 0.7 NW Appanoose14 Jul 2018 07:00 AM0.69
IA-FL-3 Nora Springs 2.4 SSE Floyd14 Jul 2018 07:00 AM2.73
IA-WR-21 Norwalk 0.5 S Warren14 Jul 2018 07:00 AM1.32
IA-DW-6 Hopkinton 5.4 WSW Delaware14 Jul 2018 07:00 AM3.84
IA-WG-6 Eagle Grove 1.3 WSW Wright14 Jul 2018 07:00 AM2.66
IA-DB-16 Peosta 2.9 E Dubuque14 Jul 2018 07:00 AM2.09
IA-MD-4 Winterset 0.2 NNW Madison14 Jul 2018 07:00 AM2.1
IA-PK-83 Altoona 1.5 SSE Polk14 Jul 2018 07:00 AM4.3
IA-SR-36 Nevada 5.1 WSW Story14 Jul 2018 07:00 AM2.14
IA-MY-2 Emerson 4.0 NNE Montgomery14 Jul 2018 07:00 AM1.97
IA-BV-2 Alta 0.3 SE Buena Vista14 Jul 2018 07:00 AM3.42
IA-TM-3 Dysart 3.1 N Tama14 Jul 2018 07:00 AM1.98
IA-DV-1 Bloomfield 9.4 NNE Davis14 Jul 2018 07:00 AM0.98
IA-LY-6 Rock Rapids 3.0 N Lyon14 Jul 2018 07:00 AM1.33
IA-PK-80 Bondurant 1.0 NNW Polk14 Jul 2018 07:00 AM0.25
IA-CS-4 Atlantic 2.2 NW Cass14 Jul 2018 06:56 AM2.25
IA-CS-5 Atlantic 7.1 NNE Cass14 Jul 2018 06:40 AM2.4
IA-ST-8 Bettendorf 2.2 SE Scott14 Jul 2018 06:30 AM2.29
IA-GN-4 Churdan 1.0 S Greene14 Jul 2018 06:00 AM2.89
IA-DL-26 Dallas Center 4.1 ENE Dallas14 Jul 2018 06:00 AM5.37
IA-ST-4 Davenport 1.0 SSW Scott14 Jul 2018 05:30 AM1.87
IA-WB-12 Fort Dodge 5.6 WNW Webster14 Jul 2018 05:00 AM2.25
IA-ST-21 Davenport 1.1 WSW Scott14 Jul 2018 04:30 AM0.41